Year,Month,Day,Hour,Minute,Value (Times are PST for temperature in C)
2012,08,15,00,00,16.20
2012,08,15,00,01,16.20
2012,08,15,00,02,16.20
2012,08,15,00,03,16.20
2012,08,15,00,04,16.20
2012,08,15,00,05,16.20
2012,08,15,00,06,16.20
2012,08,15,00,07,16.20
2012,08,15,00,08,16.30
2012,08,15,00,09,16.30
2012,08,15,00,10,16.30
2012,08,15,00,11,16.30
2012,08,15,00,12,16.40
2012,08,15,00,13,16.40
2012,08,15,00,14,16.50
2012,08,15,00,15,16.50
2012,08,15,00,16,16.50
2012,08,15,00,17,16.60
2012,08,15,00,18,16.60
2012,08,15,00,19,16.60
2012,08,15,00,20,16.70
2012,08,15,00,21,16.70
2012,08,15,00,22,16.70
2012,08,15,00,23,16.70
2012,08,15,00,24,16.80
2012,08,15,00,25,16.80
2012,08,15,00,26,16.80
2012,08,15,00,27,16.90
2012,08,15,00,28,16.90
2012,08,15,00,29,16.90
2012,08,15,00,30,16.90
2012,08,15,00,31,16.90
2012,08,15,00,32,16.90
2012,08,15,00,33,16.90
2012,08,15,00,34,17.00
2012,08,15,00,35,17.00
2012,08,15,00,36,17.00
2012,08,15,00,37,17.00
2012,08,15,00,38,17.10
2012,08,15,00,39,17.10
2012,08,15,00,40,17.00
2012,08,15,00,41,17.00
2012,08,15,00,42,17.00
2012,08,15,00,43,16.90
2012,08,15,00,44,16.90
2012,08,15,00,45,16.90
2012,08,15,00,46,16.90
2012,08,15,00,47,16.80
2012,08,15,00,48,16.80
2012,08,15,00,49,16.80
2012,08,15,00,50,16.80
2012,08,15,00,51,16.80
2012,08,15,00,52,16.80
2012,08,15,00,53,16.70
2012,08,15,00,54,16.70
2012,08,15,00,55,16.70
2012,08,15,00,56,16.70
2012,08,15,00,57,16.70
2012,08,15,00,58,16.70
2012,08,15,00,59,16.70
2012,08,15,01,00,16.60
2012,08,15,01,01,16.60
2012,08,15,01,02,16.60
2012,08,15,01,03,16.60
2012,08,15,01,04,16.60
2012,08,15,01,05,16.60
2012,08,15,01,06,16.60
2012,08,15,01,07,16.60
2012,08,15,01,08,16.60
2012,08,15,01,09,16.60
2012,08,15,01,10,16.50
2012,08,15,01,11,16.50
2012,08,15,01,12,16.50
2012,08,15,01,13,16.40
2012,08,15,01,14,16.40
2012,08,15,01,15,16.40
2012,08,15,01,16,16.40
2012,08,15,01,17,16.40
2012,08,15,01,18,16.40
2012,08,15,01,19,16.40
2012,08,15,01,20,16.40
2012,08,15,01,21,16.30
2012,08,15,01,22,16.30
2012,08,15,01,23,16.30
2012,08,15,01,24,16.30
2012,08,15,01,25,16.30
2012,08,15,01,26,16.30
2012,08,15,01,27,16.30
2012,08,15,01,28,16.30
2012,08,15,01,29,16.30
2012,08,15,01,30,16.30
2012,08,15,01,31,16.30
2012,08,15,01,32,16.30
2012,08,15,01,33,16.30
2012,08,15,01,34,16.30
2012,08,15,01,35,16.30
2012,08,15,01,36,16.40
2012,08,15,01,37,16.40
2012,08,15,01,38,16.50
2012,08,15,01,39,16.50
2012,08,15,01,40,16.60
2012,08,15,01,41,16.60
2012,08,15,01,42,16.70
2012,08,15,01,43,16.70
2012,08,15,01,44,16.80
2012,08,15,01,45,16.80
2012,08,15,01,46,16.80
2012,08,15,01,47,16.80
2012,08,15,01,48,16.80
2012,08,15,01,49,16.80
2012,08,15,01,50,16.90
2012,08,15,01,51,16.90
2012,08,15,01,52,16.90
2012,08,15,01,53,16.90
2012,08,15,01,54,16.90
2012,08,15,01,55,16.90
2012,08,15,01,56,16.90
2012,08,15,01,57,16.90
2012,08,15,01,58,16.90
2012,08,15,01,59,16.90
2012,08,15,02,00,16.90
2012,08,15,02,01,16.90
2012,08,15,02,02,16.90
2012,08,15,02,03,16.90
2012,08,15,02,04,16.90
2012,08,15,02,05,16.90
2012,08,15,02,06,16.90
2012,08,15,02,07,16.90
2012,08,15,02,08,16.90
2012,08,15,02,09,16.90
2012,08,15,02,10,16.90
2012,08,15,02,11,16.90
2012,08,15,02,12,16.90
2012,08,15,02,13,17.00
2012,08,15,02,14,16.90
2012,08,15,02,15,16.90
2012,08,15,02,16,17.00
2012,08,15,02,17,17.00
2012,08,15,02,18,17.00
2012,08,15,02,19,17.00
2012,08,15,02,20,17.00
2012,08,15,02,21,17.00
2012,08,15,02,22,17.00
2012,08,15,02,23,17.00
2012,08,15,02,24,17.00
2012,08,15,02,25,17.00
2012,08,15,02,26,17.00
2012,08,15,02,27,17.10
2012,08,15,02,28,17.10
2012,08,15,02,29,17.10
2012,08,15,02,30,17.10
2012,08,15,02,31,17.00
2012,08,15,02,32,17.00
2012,08,15,02,33,17.00
2012,08,15,02,34,17.00
2012,08,15,02,35,17.00
2012,08,15,02,36,17.10
2012,08,15,02,37,17.10
2012,08,15,02,38,17.10
2012,08,15,02,39,17.10
2012,08,15,02,40,17.10
2012,08,15,02,41,17.20
2012,08,15,02,42,17.20
2012,08,15,02,43,17.20
2012,08,15,02,44,17.30
2012,08,15,02,45,17.30
2012,08,15,02,46,17.40
2012,08,15,02,47,17.40
2012,08,15,02,48,17.40
2012,08,15,02,49,17.40
2012,08,15,02,50,17.40
2012,08,15,02,51,17.40
2012,08,15,02,52,17.40
2012,08,15,02,53,17.40
2012,08,15,02,54,17.40
2012,08,15,02,55,17.40
2012,08,15,02,56,17.40
2012,08,15,02,57,17.40
2012,08,15,02,58,17.30
2012,08,15,02,59,17.30
2012,08,15,03,00,17.30
2012,08,15,03,01,17.30
2012,08,15,03,02,17.30
2012,08,15,03,03,17.30
2012,08,15,03,04,17.30
2012,08,15,03,05,17.40
2012,08,15,03,06,17.40
2012,08,15,03,07,17.40
2012,08,15,03,08,17.40
2012,08,15,03,09,17.40
2012,08,15,03,10,17.30
2012,08,15,03,11,17.30
2012,08,15,03,12,17.30
2012,08,15,03,13,17.40
2012,08,15,03,14,17.40
2012,08,15,03,15,17.40
2012,08,15,03,16,17.40
2012,08,15,03,17,17.40
2012,08,15,03,18,17.40
2012,08,15,03,19,17.40
2012,08,15,03,20,17.40
2012,08,15,03,21,17.30
2012,08,15,03,22,17.30
2012,08,15,03,23,17.30
2012,08,15,03,24,17.30
2012,08,15,03,25,17.30
2012,08,15,03,26,17.30
2012,08,15,03,27,17.30
2012,08,15,03,28,17.20
2012,08,15,03,29,17.20
2012,08,15,03,30,17.10
2012,08,15,03,31,17.10
2012,08,15,03,32,17.10
2012,08,15,03,33,17.10
2012,08,15,03,34,17.10
2012,08,15,03,35,17.10
2012,08,15,03,36,17.10
2012,08,15,03,37,17.20
2012,08,15,03,38,17.20
2012,08,15,03,39,17.20
2012,08,15,03,40,17.30
2012,08,15,03,41,17.30
2012,08,15,03,42,17.30
2012,08,15,03,43,17.30
2012,08,15,03,44,17.30
2012,08,15,03,45,17.30
2012,08,15,03,46,17.30
2012,08,15,03,47,17.30
2012,08,15,03,48,17.20
2012,08,15,03,49,17.20
2012,08,15,03,50,17.10
2012,08,15,03,51,17.10
2012,08,15,03,52,17.10
2012,08,15,03,53,17.00
2012,08,15,03,54,17.00
2012,08,15,03,55,17.00
2012,08,15,03,56,16.90
2012,08,15,03,57,16.90
2012,08,15,03,58,16.90
2012,08,15,03,59,16.90
2012,08,15,04,00,16.90
2012,08,15,04,01,16.90
2012,08,15,04,02,16.90
2012,08,15,04,03,16.90
2012,08,15,04,04,16.90
2012,08,15,04,05,16.90
2012,08,15,04,06,16.90
2012,08,15,04,07,16.90
2012,08,15,04,08,16.90
2012,08,15,04,09,16.80
2012,08,15,04,10,16.80
2012,08,15,04,11,16.80
2012,08,15,04,12,16.80
2012,08,15,04,13,16.80
2012,08,15,04,14,16.70
2012,08,15,04,15,16.70
2012,08,15,04,16,16.60
2012,08,15,04,17,16.50
2012,08,15,04,18,16.50
2012,08,15,04,19,16.40
2012,08,15,04,20,16.40
2012,08,15,04,21,16.30
2012,08,15,04,22,16.30
2012,08,15,04,23,16.30
2012,08,15,04,24,16.30
2012,08,15,04,25,16.30
2012,08,15,04,26,16.30
2012,08,15,04,27,16.30
2012,08,15,04,28,16.20
2012,08,15,04,29,16.20
2012,08,15,04,30,16.10
2012,08,15,04,31,16.00
2012,08,15,04,32,16.00
2012,08,15,04,33,15.90
2012,08,15,04,34,15.90
2012,08,15,04,35,15.80
2012,08,15,04,36,15.80
2012,08,15,04,37,15.80
2012,08,15,04,38,15.80
2012,08,15,04,39,15.80
2012,08,15,04,40,15.80
2012,08,15,04,41,15.80
2012,08,15,04,42,15.70
2012,08,15,04,43,15.70
2012,08,15,04,44,15.80
2012,08,15,04,45,15.80
2012,08,15,04,46,15.80
2012,08,15,04,47,15.90
2012,08,15,04,48,15.90
2012,08,15,04,49,15.90
2012,08,15,04,50,15.90
2012,08,15,04,51,16.00
2012,08,15,04,52,16.00
2012,08,15,04,53,16.00
2012,08,15,04,54,16.00
2012,08,15,04,55,16.00
2012,08,15,04,56,16.00
2012,08,15,04,57,15.90
2012,08,15,04,58,15.90
2012,08,15,04,59,15.80
2012,08,15,05,00,15.80
2012,08,15,05,01,15.80
2012,08,15,05,02,15.80
2012,08,15,05,03,15.80
2012,08,15,05,04,15.80
2012,08,15,05,05,15.90
2012,08,15,05,06,16.00
2012,08,15,05,07,16.10
2012,08,15,05,08,16.10
2012,08,15,05,09,16.20
2012,08,15,05,10,16.30
2012,08,15,05,11,16.30
2012,08,15,05,12,16.40
2012,08,15,05,13,16.40
2012,08,15,05,14,16.40
2012,08,15,05,15,16.40
2012,08,15,05,16,16.40
2012,08,15,05,17,16.40
2012,08,15,05,18,16.40
2012,08,15,05,19,16.40
2012,08,15,05,20,16.40
2012,08,15,05,21,16.50
2012,08,15,05,22,16.50
2012,08,15,05,23,16.50
2012,08,15,05,24,16.50
2012,08,15,05,25,16.60
2012,08,15,05,26,16.60
2012,08,15,05,27,16.60
2012,08,15,05,28,16.60
2012,08,15,05,29,16.60
2012,08,15,05,30,16.70
2012,08,15,05,31,16.70
2012,08,15,05,32,16.70
2012,08,15,05,33,16.70
2012,08,15,05,34,16.70
2012,08,15,05,35,16.70
2012,08,15,05,36,16.70
2012,08,15,05,37,16.70
2012,08,15,05,38,16.70
2012,08,15,05,39,16.70
2012,08,15,05,40,16.70
2012,08,15,05,41,16.70
2012,08,15,05,42,16.80
2012,08,15,05,43,16.80
2012,08,15,05,44,16.80
2012,08,15,05,45,16.90
2012,08,15,05,46,16.90
2012,08,15,05,47,16.90
2012,08,15,05,48,17.00
2012,08,15,05,49,17.00
2012,08,15,05,50,17.00
2012,08,15,05,51,17.00
2012,08,15,05,52,17.10
2012,08,15,05,53,17.00
2012,08,15,05,54,17.00
2012,08,15,05,55,16.90
2012,08,15,05,56,16.80
2012,08,15,05,57,16.70
2012,08,15,05,58,16.60
2012,08,15,05,59,16.60
2012,08,15,06,00,16.50
2012,08,15,06,01,16.50
2012,08,15,06,02,16.40
2012,08,15,06,03,16.40
2012,08,15,06,04,16.40
2012,08,15,06,05,16.40
2012,08,15,06,06,16.30
2012,08,15,06,07,16.30
2012,08,15,06,08,16.30
2012,08,15,06,09,16.30
2012,08,15,06,10,16.30
2012,08,15,06,11,16.20
2012,08,15,06,12,16.20
2012,08,15,06,13,16.20
2012,08,15,06,14,16.20
2012,08,15,06,15,16.20
2012,08,15,06,16,16.20
2012,08,15,06,17,16.10
2012,08,15,06,18,16.10
2012,08,15,06,19,16.00
2012,08,15,06,20,15.90
2012,08,15,06,21,15.90
2012,08,15,06,22,15.90
2012,08,15,06,23,16.00
2012,08,15,06,24,16.00
2012,08,15,06,25,16.10
2012,08,15,06,26,16.20
2012,08,15,06,27,16.30
2012,08,15,06,28,16.50
2012,08,15,06,29,16.70
2012,08,15,06,30,16.80
2012,08,15,06,31,16.90
2012,08,15,06,32,17.00
2012,08,15,06,33,17.20
2012,08,15,06,34,17.20
2012,08,15,06,35,17.30
2012,08,15,06,36,17.40
2012,08,15,06,37,17.50
2012,08,15,06,38,17.60
2012,08,15,06,39,17.70
2012,08,15,06,40,17.70
2012,08,15,06,41,17.80
2012,08,15,06,42,17.90
2012,08,15,06,43,18.00
2012,08,15,06,44,18.10
2012,08,15,06,45,18.20
2012,08,15,06,46,18.20
2012,08,15,06,47,18.30
2012,08,15,06,48,18.30
2012,08,15,06,49,18.40
2012,08,15,06,50,18.40
2012,08,15,06,51,18.40
2012,08,15,06,52,18.40
2012,08,15,06,53,18.40
2012,08,15,06,54,18.40
2012,08,15,06,55,18.40
2012,08,15,06,56,18.50
2012,08,15,06,57,18.50
2012,08,15,06,58,18.50
2012,08,15,06,59,18.50
2012,08,15,07,00,18.50
2012,08,15,07,01,18.50
2012,08,15,07,02,18.50
2012,08,15,07,03,18.50
2012,08,15,07,04,18.50
2012,08,15,07,05,18.60
2012,08,15,07,06,18.60
2012,08,15,07,07,18.60
2012,08,15,07,08,18.60
2012,08,15,07,09,18.60
2012,08,15,07,10,18.60
2012,08,15,07,11,18.60
2012,08,15,07,12,18.60
2012,08,15,07,13,18.60
2012,08,15,07,14,18.70
2012,08,15,07,15,18.70
2012,08,15,07,16,18.80
2012,08,15,07,17,18.90
2012,08,15,07,18,18.90
2012,08,15,07,19,19.00
2012,08,15,07,20,19.00
2012,08,15,07,21,19.10
2012,08,15,07,22,19.10
2012,08,15,07,23,19.10
2012,08,15,07,24,19.10
2012,08,15,07,25,19.20
2012,08,15,07,26,19.30
2012,08,15,07,27,19.30
2012,08,15,07,28,19.30
2012,08,15,07,29,19.30
2012,08,15,07,30,19.30
2012,08,15,07,31,19.30
2012,08,15,07,32,19.30
2012,08,15,07,33,19.30
2012,08,15,07,34,19.20
2012,08,15,07,35,19.20
2012,08,15,07,36,19.20
2012,08,15,07,37,19.20
2012,08,15,07,38,19.20
2012,08,15,07,39,19.20
2012,08,15,07,40,19.20
2012,08,15,07,41,19.20
2012,08,15,07,42,19.20
2012,08,15,07,43,19.20
2012,08,15,07,44,19.20
2012,08,15,07,45,19.10
2012,08,15,07,46,19.10
2012,08,15,07,47,19.10
2012,08,15,07,48,19.10
2012,08,15,07,49,19.10
2012,08,15,07,50,19.10
2012,08,15,07,51,19.10
2012,08,15,07,52,19.10
2012,08,15,07,53,19.10
2012,08,15,07,54,19.10
2012,08,15,07,55,19.20
2012,08,15,07,56,19.20
2012,08,15,07,57,19.20
2012,08,15,07,58,19.20
2012,08,15,07,59,19.30
2012,08,15,08,00,19.40
2012,08,15,08,01,19.40
2012,08,15,08,02,19.50
2012,08,15,08,03,19.60
2012,08,15,08,04,19.60
2012,08,15,08,05,19.70
2012,08,15,08,06,19.80
2012,08,15,08,07,19.90
2012,08,15,08,08,19.90
2012,08,15,08,09,20.00
2012,08,15,08,10,20.00
2012,08,15,08,11,20.00
2012,08,15,08,12,20.00
2012,08,15,08,13,20.10
2012,08,15,08,14,20.10
2012,08,15,08,15,20.20
2012,08,15,08,16,20.20
2012,08,15,08,17,20.20
2012,08,15,08,18,20.30
2012,08,15,08,19,20.30
2012,08,15,08,20,20.40
2012,08,15,08,21,20.40
2012,08,15,08,22,20.50
2012,08,15,08,23,20.60
2012,08,15,08,24,20.70
2012,08,15,08,25,20.80
2012,08,15,08,26,20.90
2012,08,15,08,27,21.00
2012,08,15,08,28,21.20
2012,08,15,08,29,21.30
2012,08,15,08,30,21.30
2012,08,15,08,31,21.40
2012,08,15,08,32,21.50
2012,08,15,08,33,21.60
2012,08,15,08,34,21.70
2012,08,15,08,35,21.70
2012,08,15,08,36,21.70
2012,08,15,08,37,21.80
2012,08,15,08,38,21.80
2012,08,15,08,39,21.80
2012,08,15,08,40,21.80
2012,08,15,08,41,21.80
2012,08,15,08,42,21.80
2012,08,15,08,43,21.80
2012,08,15,08,44,21.80
2012,08,15,08,45,21.80
2012,08,15,08,46,21.80
2012,08,15,08,47,21.90
2012,08,15,08,48,21.90
2012,08,15,08,49,22.00
2012,08,15,08,50,22.00
2012,08,15,08,51,22.10
2012,08,15,08,52,22.10
2012,08,15,08,53,22.20
2012,08,15,08,54,22.30
2012,08,15,08,55,22.30
2012,08,15,08,56,22.30
2012,08,15,08,57,22.30
2012,08,15,08,58,22.30
2012,08,15,08,59,22.30
2012,08,15,09,00,22.30
2012,08,15,09,01,22.30
2012,08,15,09,02,22.30
2012,08,15,09,03,22.40
2012,08,15,09,04,22.40
2012,08,15,09,05,22.40
2012,08,15,09,06,22.40
2012,08,15,09,07,22.40
2012,08,15,09,08,22.50
2012,08,15,09,09,22.60
2012,08,15,09,10,22.70
2012,08,15,09,11,22.70
2012,08,15,09,12,22.70
2012,08,15,09,13,22.70
2012,08,15,09,14,22.70
2012,08,15,09,15,22.70
2012,08,15,09,16,22.70
2012,08,15,09,17,22.70
2012,08,15,09,18,22.70
2012,08,15,09,19,22.70
2012,08,15,09,20,22.80
2012,08,15,09,21,22.80
2012,08,15,09,22,22.80
2012,08,15,09,23,22.80
2012,08,15,09,24,22.80
2012,08,15,09,25,22.80
2012,08,15,09,26,22.90
2012,08,15,09,27,22.90
2012,08,15,09,28,23.00
2012,08,15,09,29,23.00
2012,08,15,09,30,23.10
2012,08,15,09,31,23.10
2012,08,15,09,32,23.10
2012,08,15,09,33,23.10
2012,08,15,09,34,23.10
2012,08,15,09,35,23.10
2012,08,15,09,36,23.10
2012,08,15,09,37,23.10
2012,08,15,09,38,23.10
2012,08,15,09,39,23.10
2012,08,15,09,40,23.20
2012,08,15,09,41,23.20
2012,08,15,09,42,23.30
2012,08,15,09,43,23.30
2012,08,15,09,44,23.30
2012,08,15,09,45,23.40
2012,08,15,09,46,23.40
2012,08,15,09,47,23.40
2012,08,15,09,48,23.40
2012,08,15,09,49,23.40
2012,08,15,09,50,23.40
2012,08,15,09,51,23.40
2012,08,15,09,52,23.40
2012,08,15,09,53,23.50
2012,08,15,09,54,23.50
2012,08,15,09,55,23.50
2012,08,15,09,56,23.50
2012,08,15,09,57,23.50
2012,08,15,09,58,23.60
2012,08,15,09,59,23.60
2012,08,15,10,00,23.60
2012,08,15,10,01,23.70
2012,08,15,10,02,23.70
2012,08,15,10,03,23.70
2012,08,15,10,04,23.70
2012,08,15,10,05,23.80
2012,08,15,10,06,23.80
2012,08,15,10,07,23.80
2012,08,15,10,08,23.90
2012,08,15,10,09,23.90
2012,08,15,10,10,24.00
2012,08,15,10,11,24.00
2012,08,15,10,12,24.00
2012,08,15,10,13,24.10
2012,08,15,10,14,24.30
2012,08,15,10,15,24.30
2012,08,15,10,16,24.40
2012,08,15,10,17,24.40
2012,08,15,10,18,24.40
2012,08,15,10,19,24.40
2012,08,15,10,20,24.40
2012,08,15,10,21,24.30
2012,08,15,10,22,24.30
2012,08,15,10,23,24.30
2012,08,15,10,24,24.30
2012,08,15,10,25,24.30
2012,08,15,10,26,24.30
2012,08,15,10,27,24.30
2012,08,15,10,28,24.30
2012,08,15,10,29,24.30
2012,08,15,10,30,24.40
2012,08,15,10,31,24.40
2012,08,15,10,32,24.40
2012,08,15,10,33,24.40
2012,08,15,10,34,24.40
2012,08,15,10,35,24.40
2012,08,15,10,36,24.40
2012,08,15,10,37,24.40
2012,08,15,10,38,24.40
2012,08,15,10,39,24.40
2012,08,15,10,40,24.40
2012,08,15,10,41,24.50
2012,08,15,10,42,24.60
2012,08,15,10,43,24.70
2012,08,15,10,44,24.70
2012,08,15,10,45,24.70
2012,08,15,10,46,24.70
2012,08,15,10,47,24.60
2012,08,15,10,48,24.60
2012,08,15,10,49,24.60
2012,08,15,10,50,24.60
2012,08,15,10,51,24.60
2012,08,15,10,52,24.60
2012,08,15,10,53,24.60
2012,08,15,10,54,24.60
2012,08,15,10,55,24.60
2012,08,15,10,56,24.60
2012,08,15,10,57,24.60
2012,08,15,10,58,24.60
2012,08,15,10,59,24.60
2012,08,15,11,00,24.60
2012,08,15,11,01,24.60
2012,08,15,11,02,24.70
2012,08,15,11,03,24.70
2012,08,15,11,04,24.60
2012,08,15,11,05,24.60
2012,08,15,11,06,24.60
2012,08,15,11,07,24.60
2012,08,15,11,08,24.70
2012,08,15,11,09,24.80
2012,08,15,11,10,24.80
2012,08,15,11,11,24.80
2012,08,15,11,12,24.80
2012,08,15,11,13,24.80
2012,08,15,11,14,24.80
2012,08,15,11,15,24.90
2012,08,15,11,16,24.90
2012,08,15,11,17,25.00
2012,08,15,11,18,25.10
2012,08,15,11,19,25.20
2012,08,15,11,20,25.20
2012,08,15,11,21,25.20
2012,08,15,11,22,25.20
2012,08,15,11,23,25.20
2012,08,15,11,24,25.20
2012,08,15,11,25,25.20
2012,08,15,11,26,25.20
2012,08,15,11,27,25.30
2012,08,15,11,28,25.30
2012,08,15,11,29,25.30
2012,08,15,11,30,25.30
2012,08,15,11,31,25.30
2012,08,15,11,32,25.20
2012,08,15,11,33,25.20
2012,08,15,11,34,25.20
2012,08,15,11,35,25.20
2012,08,15,11,36,25.30
2012,08,15,11,37,25.40
2012,08,15,11,38,25.50
2012,08,15,11,39,25.50
2012,08,15,11,40,25.50
2012,08,15,11,41,25.60
2012,08,15,11,42,25.70
2012,08,15,11,43,25.80
2012,08,15,11,44,25.80
2012,08,15,11,45,25.80
2012,08,15,11,46,25.80
2012,08,15,11,47,25.80
2012,08,15,11,48,25.80
2012,08,15,11,49,25.70
2012,08,15,11,50,25.60
2012,08,15,11,51,25.60
2012,08,15,11,52,25.60
2012,08,15,11,53,25.70
2012,08,15,11,54,25.70
2012,08,15,11,55,25.70
2012,08,15,11,56,25.80
2012,08,15,11,57,25.80
2012,08,15,11,58,25.80
2012,08,15,11,59,25.90
2012,08,15,12,00,25.90
2012,08,15,12,01,26.00
2012,08,15,12,02,26.00
2012,08,15,12,03,26.00
2012,08,15,12,04,25.90
2012,08,15,12,05,26.00
2012,08,15,12,06,26.00
2012,08,15,12,07,26.10
2012,08,15,12,08,26.10
2012,08,15,12,09,26.00
2012,08,15,12,10,26.00
2012,08,15,12,11,26.00
2012,08,15,12,12,26.00
2012,08,15,12,13,26.00
2012,08,15,12,14,26.10
2012,08,15,12,15,26.10
2012,08,15,12,16,26.10
2012,08,15,12,17,26.10
2012,08,15,12,18,26.20
2012,08,15,12,19,26.20
2012,08,15,12,20,26.30
2012,08,15,12,21,26.30
2012,08,15,12,22,26.50
2012,08,15,12,23,26.50
2012,08,15,12,24,26.50
2012,08,15,12,25,26.40
2012,08,15,12,26,26.40
2012,08,15,12,27,26.40
2012,08,15,12,28,26.40
2012,08,15,12,29,26.40
2012,08,15,12,30,26.40
2012,08,15,12,31,26.40
2012,08,15,12,32,26.50
2012,08,15,12,33,26.50
2012,08,15,12,34,26.50
2012,08,15,12,35,26.40
2012,08,15,12,36,26.40
2012,08,15,12,37,26.40
2012,08,15,12,38,26.40
2012,08,15,12,39,26.50
2012,08,15,12,40,26.50
2012,08,15,12,41,26.60
2012,08,15,12,42,26.70
2012,08,15,12,43,26.80
2012,08,15,12,44,26.80
2012,08,15,12,45,26.80
2012,08,15,12,46,26.80
2012,08,15,12,47,26.80
2012,08,15,12,48,26.80
2012,08,15,12,49,26.80
2012,08,15,12,50,26.90
2012,08,15,12,51,26.90
2012,08,15,12,52,27.00
2012,08,15,12,53,27.10
2012,08,15,12,54,27.20
2012,08,15,12,55,27.20
2012,08,15,12,56,27.20
2012,08,15,12,57,27.10
2012,08,15,12,58,27.10
2012,08,15,12,59,27.20
2012,08,15,13,00,27.10
2012,08,15,13,01,27.10
2012,08,15,13,02,27.20
2012,08,15,13,03,27.20
2012,08,15,13,04,27.20
2012,08,15,13,05,27.20
2012,08,15,13,06,27.20
2012,08,15,13,07,27.20
2012,08,15,13,08,27.20
2012,08,15,13,09,27.20
2012,08,15,13,10,27.20
2012,08,15,13,11,27.20
2012,08,15,13,12,27.10
2012,08,15,13,13,27.20
2012,08,15,13,14,27.20
2012,08,15,13,15,27.20
2012,08,15,13,16,27.20
2012,08,15,13,17,27.30
2012,08,15,13,18,27.40
2012,08,15,13,19,27.60
2012,08,15,13,20,27.70
2012,08,15,13,21,27.80
2012,08,15,13,22,27.70
2012,08,15,13,23,27.70
2012,08,15,13,24,27.60
2012,08,15,13,25,27.50
2012,08,15,13,26,27.50
2012,08,15,13,27,27.40
2012,08,15,13,28,27.30
2012,08,15,13,29,27.30
2012,08,15,13,30,27.20
2012,08,15,13,31,27.20
2012,08,15,13,32,27.30
2012,08,15,13,33,27.30
2012,08,15,13,34,27.40
2012,08,15,13,35,27.40
2012,08,15,13,36,27.40
2012,08,15,13,37,27.40
2012,08,15,13,38,27.40
2012,08,15,13,39,27.40
2012,08,15,13,40,27.40
2012,08,15,13,41,27.40
2012,08,15,13,42,27.40
2012,08,15,13,43,27.40
2012,08,15,13,44,27.40
2012,08,15,13,45,27.40
2012,08,15,13,46,27.40
2012,08,15,13,47,27.40
2012,08,15,13,48,27.50
2012,08,15,13,49,27.60
2012,08,15,13,50,27.80
2012,08,15,13,51,27.90
2012,08,15,13,52,27.90
2012,08,15,13,53,27.90
2012,08,15,13,54,27.80
2012,08,15,13,55,27.80
2012,08,15,13,56,27.80
2012,08,15,13,57,27.80
2012,08,15,13,58,27.80
2012,08,15,13,59,27.80
2012,08,15,14,00,27.90
2012,08,15,14,01,27.90
2012,08,15,14,02,28.00
2012,08,15,14,03,28.10
2012,08,15,14,04,28.30
2012,08,15,14,05,28.40
2012,08,15,14,06,28.40
2012,08,15,14,07,28.40
2012,08,15,14,08,28.20
2012,08,15,14,09,28.10
2012,08,15,14,10,28.00
2012,08,15,14,11,28.00
2012,08,15,14,12,28.00
2012,08,15,14,13,28.00
2012,08,15,14,14,28.00
2012,08,15,14,15,28.00
2012,08,15,14,16,28.10
2012,08,15,14,17,28.20
2012,08,15,14,18,28.30
2012,08,15,14,19,28.30
2012,08,15,14,20,28.30
2012,08,15,14,21,28.40
2012,08,15,14,22,28.40
2012,08,15,14,23,28.60
2012,08,15,14,24,28.70
2012,08,15,14,25,28.80
2012,08,15,14,26,28.80
2012,08,15,14,27,28.80
2012,08,15,14,28,28.80
2012,08,15,14,29,28.70
2012,08,15,14,30,28.70
2012,08,15,14,31,28.60
2012,08,15,14,32,28.60
2012,08,15,14,33,28.50
2012,08,15,14,34,28.50
2012,08,15,14,35,28.50
2012,08,15,14,36,28.40
2012,08,15,14,37,28.50
2012,08,15,14,38,28.50
2012,08,15,14,39,28.50
2012,08,15,14,40,28.50
2012,08,15,14,41,28.40
2012,08,15,14,42,28.50
2012,08,15,14,43,28.60
2012,08,15,14,44,28.60
2012,08,15,14,45,28.60
2012,08,15,14,46,28.60
2012,08,15,14,47,28.70
2012,08,15,14,48,28.70
2012,08,15,14,49,28.90
2012,08,15,14,50,29.00
2012,08,15,14,51,29.00
2012,08,15,14,52,29.00
2012,08,15,14,53,28.90
2012,08,15,14,54,28.90
2012,08,15,14,55,28.90
2012,08,15,14,56,28.90
2012,08,15,14,57,28.90
2012,08,15,14,58,28.90
2012,08,15,14,59,28.80
2012,08,15,15,00,28.80
2012,08,15,15,01,28.90
2012,08,15,15,02,28.90
2012,08,15,15,03,28.80
2012,08,15,15,04,28.80
2012,08,15,15,05,28.70
2012,08,15,15,06,28.70
2012,08,15,15,07,28.60
2012,08,15,15,08,28.60
2012,08,15,15,09,28.70
2012,08,15,15,10,28.70
2012,08,15,15,11,28.70
2012,08,15,15,12,28.70
2012,08,15,15,13,28.70
2012,08,15,15,14,28.70
2012,08,15,15,15,28.80
2012,08,15,15,16,28.80
2012,08,15,15,17,28.90
2012,08,15,15,18,28.90
2012,08,15,15,19,28.80
2012,08,15,15,20,28.80
2012,08,15,15,21,28.80
2012,08,15,15,22,28.80
2012,08,15,15,23,28.80
2012,08,15,15,24,28.80
2012,08,15,15,25,28.90
2012,08,15,15,26,28.90
2012,08,15,15,27,28.90
2012,08,15,15,28,28.90
2012,08,15,15,29,28.90
2012,08,15,15,30,28.90
2012,08,15,15,31,28.90
2012,08,15,15,32,29.00
2012,08,15,15,33,29.00
2012,08,15,15,34,29.00
2012,08,15,15,35,29.00
2012,08,15,15,36,29.00
2012,08,15,15,37,28.90
2012,08,15,15,38,28.90
2012,08,15,15,39,28.80
2012,08,15,15,40,28.80
2012,08,15,15,41,28.90
2012,08,15,15,42,29.00
2012,08,15,15,43,29.10
2012,08,15,15,44,29.20
2012,08,15,15,45,29.30
2012,08,15,15,46,29.30
2012,08,15,15,47,29.40
2012,08,15,15,48,29.40
2012,08,15,15,49,29.30
2012,08,15,15,50,29.20
2012,08,15,15,51,29.20
2012,08,15,15,52,29.20
2012,08,15,15,53,29.20
2012,08,15,15,54,29.20
2012,08,15,15,55,29.10
2012,08,15,15,56,29.00
2012,08,15,15,57,29.00
2012,08,15,15,58,28.90
2012,08,15,15,59,29.00
2012,08,15,16,00,29.00
2012,08,15,16,01,29.10
2012,08,15,16,02,29.20
2012,08,15,16,03,29.20
2012,08,15,16,04,29.20
2012,08,15,16,05,29.10
2012,08,15,16,06,29.10
2012,08,15,16,07,29.00
2012,08,15,16,08,29.00
2012,08,15,16,09,29.00
2012,08,15,16,10,29.10
2012,08,15,16,11,29.10
2012,08,15,16,12,29.20
2012,08,15,16,13,29.20
2012,08,15,16,14,29.10
2012,08,15,16,15,29.10
2012,08,15,16,16,29.10
2012,08,15,16,17,29.10
2012,08,15,16,18,29.20
2012,08,15,16,19,29.20
2012,08,15,16,20,29.20
2012,08,15,16,21,29.10
2012,08,15,16,22,29.10
2012,08,15,16,23,29.10
2012,08,15,16,24,29.10
2012,08,15,16,25,29.20
2012,08,15,16,26,29.20
2012,08,15,16,27,29.20
2012,08,15,16,28,29.20
2012,08,15,16,29,29.30
2012,08,15,16,30,29.30
2012,08,15,16,31,29.30
2012,08,15,16,32,29.30
2012,08,15,16,33,29.20
2012,08,15,16,34,29.20
2012,08,15,16,35,29.20
2012,08,15,16,36,29.30
2012,08,15,16,37,29.20
2012,08,15,16,38,29.20
2012,08,15,16,39,29.20
2012,08,15,16,40,29.10
2012,08,15,16,41,29.10
2012,08,15,16,42,29.20
2012,08,15,16,43,29.30
2012,08,15,16,44,29.30
2012,08,15,16,45,29.40
2012,08,15,16,46,29.40
2012,08,15,16,47,29.40
2012,08,15,16,48,29.30
2012,08,15,16,49,29.30
2012,08,15,16,50,29.30
2012,08,15,16,51,29.30
2012,08,15,16,52,29.40
2012,08,15,16,53,29.40
2012,08,15,16,54,29.50
2012,08,15,16,55,29.50
2012,08,15,16,56,29.50
2012,08,15,16,57,29.50
2012,08,15,16,58,29.60
2012,08,15,16,59,29.60
2012,08,15,17,00,29.60
2012,08,15,17,01,29.60
2012,08,15,17,02,29.60
2012,08,15,17,03,29.60
2012,08,15,17,04,29.60
2012,08,15,17,05,29.60
2012,08,15,17,06,29.60
2012,08,15,17,07,29.60
2012,08,15,17,08,29.50
2012,08,15,17,09,29.50
2012,08,15,17,10,29.50
2012,08,15,17,11,29.40
2012,08,15,17,12,29.40
2012,08,15,17,13,29.40
2012,08,15,17,14,29.40
2012,08,15,17,15,29.50
2012,08,15,17,16,29.60
2012,08,15,17,17,29.70
2012,08,15,17,18,29.70
2012,08,15,17,19,29.70